Stations météo

réclame
Mon MeteoGroup
Stockholm/Bromma, Suède (2464): Température de l'air & dewpoint: 18.06.2019 11:00:00 - 24.06.2019 11:00:00 (CEST)Stockholm/Bromma, Suède (2464): Vitesse du vent: 18.06.2019 11:00:00 - 24.06.2019 11:00:00 (CEST)Stockholm/Bromma, Suède (2464): Direction du vent: 18.06.2019 11:00:00 - 24.06.2019 11:00:00 (CEST)Stockholm/Bromma, Suède (2464): reduced air pressure: 18.06.2019 11:00:00 - 24.06.2019 11:00:00 (CEST)Stockholm/Bromma, Suède (2464): visibility: 18.06.2019 11:00:00 - 24.06.2019 11:00:00 (CEST)
Date & Time tt [°C] td [°C] ff [km/h] ff [knt] dd ppp [hPa] vv [km]
24.06.2019 11:00:00 19,6 7,9 9 5 ENE 1030,0 10
24.06.2019 10:00:00 18,8 7,9 9 5 E 1029,8 10
24.06.2019 09:00:00 18,2 8,5 13 7 ENE 1029,2 10
24.06.2019 08:00:00 17,3 7,9 15 8 NE 1028,8 10
24.06.2019 07:00:00 16,0 9,2 11 6 NNE 1028,3 10
24.06.2019 06:00:00 15,0 8,2 8 4 NW 1027,7 10
24.06.2019 05:00:00 12,1 9,1 0 0 N 1027,2 10
24.06.2019 04:00:00 10,4 8,8 0 0 N 1026,6 10
24.06.2019 03:00:00 10,6 8,4 4 2 SW 1026,3 10
24.06.2019 02:00:00 11,8 8,5 4 2 WSW 1025,7 10
24.06.2019 01:00:00 14,9 8,1 5 3 W 1025,1 10
24.06.2019 00:00:00 16,2 8,2 9 5 W 1024,5 10
23.06.2019 23:00:00 16,5 7,7 9 5 WSW 1024,3 10
23.06.2019 22:00:00 17,6 7,1 11 6 WSW 1023,7 10
23.06.2019 21:00:00 19,0 6,5 16 9 WSW 1023,2 10
23.06.2019 20:00:00 19,3 6,1 18 10 WSW 1022,8 10
23.06.2019 19:00:00 20,0 3,7 22 12 W 1022,6 10
23.06.2019 18:00:00 21,0 2,8 26 14 W 1022,3 10
23.06.2019 17:00:00 20,8 4,8 24 13 W 1022,2 10
23.06.2019 16:00:00 21,8 6,8 18 10 WNW 1022,1 10
23.06.2019 15:00:00 22,0 4,5 18 10 W 1022,0 10
23.06.2019 14:00:00 22,4 4,0 15 8 W 1022,2 10
23.06.2019 13:00:00 21,2 3,8 18 10 W 1022,3 10
23.06.2019 12:00:00 20,9 4,0 16 9 W 1022,4 10
23.06.2019 11:00:00 21,0 5,4 15 8 SW 1022,6 10
23.06.2019 10:00:00 20,3 7,6 11 6 WSW 1022,8 10
23.06.2019 09:00:00 18,1 9,2 11 6 WSW 1022,7 10
23.06.2019 08:00:00 16,3 9,7 13 7 WSW 1022,9 10
23.06.2019 07:00:00 14,8 9,6 13 7 W 1022,7 10
23.06.2019 06:00:00 14,7 9,7 11 6 WSW 1022,7 10
23.06.2019 05:00:00 13,3 9,2 5 3 SW 1022,3 10
23.06.2019 04:00:00 10,8 7,9 5 3 SW 1022,1 10
23.06.2019 03:00:00 11,6 7,9 5 3 SW 1021,7 10
23.06.2019 02:00:00 12,8 7,5 5 3 SW 1021,4 10
23.06.2019 01:00:00 14,2 7,5 9 5 WSW 1021,2 10
23.06.2019 00:00:00 15,4 7,4 11 6 WSW 1020,9 10
22.06.2019 23:00:00 15,9 7,4 9 5 WSW 1020,6 10
22.06.2019 22:00:00 17,5 7,0 13 7 WSW 1020,1 10
22.06.2019 21:00:00 18,9 6,0 15 8 WSW 1019,4 10
22.06.2019 20:00:00 19,8 5,4 16 9 W 1019,2 10
22.06.2019 19:00:00 20,3 5,1 22 12 W 1018,9 10
22.06.2019 18:00:00 20,5 4,5 22 12 WSW 1018,8 10
22.06.2019 17:00:00 20,6 5,0 24 13 WSW 1018,6 10
22.06.2019 16:00:00 20,9 6,0 24 13 W 1018,3 10
22.06.2019 15:00:00 20,8 7,1 24 13 W 1018,1 10
22.06.2019 14:00:00 20,2 6,9 26 14 W 1017,9 10
22.06.2019 13:00:00 19,5 6,9 28 15 W 1017,4 10
22.06.2019 12:00:00 18,8 6,3 31 17 W 1016,8 10
22.06.2019 11:00:00 18,2 6,1 31 17 WSW 1016,3 10
22.06.2019 10:00:00 17,4 7,2 31 17 W 1015,5 10
22.06.2019 09:00:00 16,2 7,4 28 15 WSW 1014,6 10
22.06.2019 08:00:00 14,8 8,5 28 15 WSW 1014,2 10
22.06.2019 07:00:00 13,8 8,6 22 12 WSW 1013,9 10
22.06.2019 06:00:00 13,0 8,9 24 13 SW 1013,7 10
22.06.2019 05:00:00 12,5 8,4 21 11 WSW 1013,5 10
22.06.2019 04:00:00 12,7 8,0 24 13 WSW 1013,1 10
22.06.2019 03:00:00 13,4 7,4 18 10 WSW 1012,6 10
22.06.2019 02:00:00 14,4 6,0 18 10 WSW 1012,4 10
22.06.2019 01:00:00 15,4 5,9 16 9 W 1012,3 10
22.06.2019 00:00:00 15,9 5,8 13 7 WSW 1011,8 10
21.06.2019 23:00:00 16,1 5,4 11 6 W 1011,6 10
21.06.2019 22:00:00 17,3 7,1 18 10 W 1011,1 10
21.06.2019 21:00:00 19,1 7,8 18 10 W 1010,5 10
21.06.2019 20:00:00 20,7 5,5 22 12 WSW 1010,3 10
21.06.2019 19:00:00 21,2 7,1 21 11 WSW 1010,2 10
21.06.2019 18:00:00 21,4 7,2 24 13 W 1010,3 10
21.06.2019 17:00:00 21,7 7,5 21 11 WSW 1010,5 10
21.06.2019 16:00:00 21,4 8,0 22 12 W 1011,0 10
21.06.2019 15:00:00 22,1 8,6 24 13 W 1011,1 10
21.06.2019 14:00:00 21,0 9,6 22 12 WSW 1011,0 10
21.06.2019 13:00:00 21,3 9,2 24 13 W 1010,6 10
21.06.2019 12:00:00 20,1 9,4 21 11 WSW 1010,4 10
21.06.2019 11:00:00 19,3 10,3 22 12 W 1010,3 10
21.06.2019 10:00:00 18,3 10,6 22 12 W 1010,2 10
21.06.2019 09:00:00 17,2 11,5 21 11 WSW 1009,8 10
21.06.2019 08:00:00 16,7 12,0 21 11 W 1009,4 10
21.06.2019 07:00:00 16,9 13,2 18 10 W 1008,8 10
21.06.2019 06:00:00 16,9 14,4 13 7 W 1008,5 10
21.06.2019 05:00:00 16,3 14,7 16 9 WSW 1008,1 10
21.06.2019 04:00:00 16,3 15,2 9 5 WSW 1007,8 10
21.06.2019 03:00:00 17,0 16,0 8 4 WSW 1007,5 10
21.06.2019 02:00:00 17,6 17,0 5 3 SW 1007,3 10
21.06.2019 01:00:00 18,1 17,1 8 4 SSW 1006,8 10
21.06.2019 00:00:00 18,4 16,6 5 3 SSE 1006,5 10
20.06.2019 23:00:00 19,7 16,5 5 3 - 1006,2 10
20.06.2019 22:00:00 21,5 15,8 8 4 S 1005,9 10
20.06.2019 21:00:00 22,6 14,9 11 6 SSW 1005,6 10
20.06.2019 20:00:00 24,4 15,6 11 6 SSW 1004,9 10
20.06.2019 19:00:00 25,0 15,0 11 6 S 1004,6 10
20.06.2019 18:00:00 24,1 17,1 5 3 - 1004,7 10
20.06.2019 17:00:00 23,5 16,8 18 10 SSW 1004,9 10
20.06.2019 16:00:00 24,4 17,4 16 9 S 1005,8 10
20.06.2019 15:00:00 26,5 16,4 22 12 SSE 1005,5 10
20.06.2019 14:00:00 26,7 15,7 24 13 SE 1005,7 10
20.06.2019 13:00:00 27,0 15,7 21 11 SSE 1006,4 10
20.06.2019 12:00:00 26,1 15,8 21 11 SSE 1006,9 10
20.06.2019 11:00:00 25,9 14,0 24 13 SE 1007,0 10
20.06.2019 10:00:00 24,7 13,0 18 10 SE 1007,2 10
20.06.2019 09:00:00 23,8 12,8 11 6 ESE 1007,6 10
20.06.2019 08:00:00 21,9 14,0 13 7 ESE 1008,3 10
20.06.2019 07:00:00 19,7 13,2 15 8 SE 1008,8 10
20.06.2019 06:00:00 18,2 12,4 11 6 SSE 1009,4 10
20.06.2019 05:00:00 16,8 12,3 11 6 SE 1009,8 10
20.06.2019 04:00:00 16,2 12,0 9 5 SSE 1009,9 10
20.06.2019 03:00:00 16,6 11,3 9 5 SSE 1010,1 10
20.06.2019 02:00:00 18,5 11,1 13 7 SSE 1010,4 10
20.06.2019 01:00:00 19,2 12,0 8 4 SSE 1010,5 10
20.06.2019 00:00:00 18,9 12,6 9 5 SE 1010,6 10
19.06.2019 23:00:00 18,9 12,6 5 3 SSE 1011,0 10
19.06.2019 22:00:00 19,6 12,4 11 6 S 1011,1 10
19.06.2019 21:00:00 20,8 12,5 11 6 SSE 1011,2 10
19.06.2019 20:00:00 21,3 12,4 13 7 S 1011,1 10
19.06.2019 19:00:00 21,9 13,5 8 4 S 1011,2 10
19.06.2019 18:00:00 22,0 12,0 9 5 W 1011,5 10
19.06.2019 17:00:00 24,1 11,1 18 10 SSW 1011,1 10
19.06.2019 16:00:00 25,7 12,9 21 11 SSW 1011,1 10
19.06.2019 15:00:00 25,1 13,6 22 12 SSW 1011,6 10
19.06.2019 14:00:00 24,9 11,5 21 11 SSW 1012,0 10
19.06.2019 13:00:00 24,9 11,5 18 10 SSW 1012,0 10
19.06.2019 12:00:00 24,3 12,3 18 10 S 1012,1 10
19.06.2019 11:00:00 23,6 14,6 11 6 SSW 1012,4 10
19.06.2019 10:00:00 21,3 14,7 13 7 SW 1012,7 10
19.06.2019 09:00:00 20,5 13,9 15 8 S 1013,0 10
19.06.2019 08:00:00 20,1 14,5 11 6 SSW 1013,0 10
19.06.2019 07:00:00 18,2 13,7 8 4 S 1013,1 10
19.06.2019 06:00:00 16,5 14,1 8 4 ESE 1013,1 10
19.06.2019 05:00:00 14,8 13,8 4 2 SE 1013,3 10
19.06.2019 04:00:00 15,0 13,5 5 3 WNW 1013,5 10
19.06.2019 03:00:00 16,1 13,4 8 4 SSE 1013,7 10
19.06.2019 02:00:00 15,9 13,2 9 5 SSE 1013,9 10
19.06.2019 01:00:00 15,6 13,4 4 2 SSE 1013,8 10
19.06.2019 00:00:00 16,9 13,2 5 3 S 1014,2 10
18.06.2019 23:00:00 17,5 13,0 11 6 SSE 1014,1 10
18.06.2019 22:00:00 18,2 13,1 13 7 SE 1014,4 10
18.06.2019 21:00:00 17,4 15,2 4 2 ENE 1014,8 10
18.06.2019 20:00:00 20,3 12,3 9 5 S 1015,8 10
18.06.2019 19:00:00 21,5 12,9 8 4 S 1015,6 10
18.06.2019 18:00:00 21,2 13,1 8 4 S 1015,9 10
18.06.2019 17:00:00 20,6 15,2 13 7 W 1016,6 10
18.06.2019 16:00:00 20,6 16,0 5 3 WNW 1016,8 10
18.06.2019 15:00:00 22,5 12,4 11 6 WNW 1016,8 10
18.06.2019 14:00:00 23,2 11,6 15 8 W 1017,0 10
18.06.2019 13:00:00 23,0 11,4 21 11 WSW 1017,3 10
18.06.2019 12:00:00 22,4 10,8 21 11 W 1017,3 10
18.06.2019 11:00:00 21,6 11,3 26 14 W 1017,3 10

tt = Température de l'air
td = dewpoint
ff = Vitesse du vent
dd = Direction du vent
ppp = reduced air pressure
vv = visibility

stations d'obs. à proximité